Погода в Северном Коммунаре

Россия / Пермский край     58°22′49″N   54°00′55″E
темп.,
°C
ветер,
м/с
пор.,
м/с
влажн.,
%
обл.,
%
осадки,
мм/ч
давл.,
гПа
погр.,
м
17 мая, пн
пн1723:00+18ссз3673100 0.3 1014178
02:00+17ююз268586 0.4 1014152
05:00+16зюз398685 0.6 1015321
08:00+18зюз4117899 0.0 1015499
11:00+23з58530 0.0 10151121
14:00+26з59367 0.0 10152679
17:00+26з593436 0.0 10142920
20:00+23з484744 0.0 1014725
18 мая, вт
вт1823:00+16сз310720 0.0 1016329
02:00+14сз2887100 0.0 1018276
05:00+11сз2790100 0.0 1019203
08:00+14ссз357613 0.0 1020465
11:00+19с455724 0.0 10211291
14:00+21ссв34435 0.0 10201686
17:00+21св34435 0.0 10211399
20:00+19всв24522 0.0 1022214
19 мая, ср
ср1923:00+13всв22700 0.0 102328
02:00+11вюв22845 0.0 102415
05:00+10вюв24955 0.0 102585
08:00+14юв356939 0.0 1026419
11:00+18юв34475 0.0 1025912
14:00+22юв333536 0.0 10241274
17:00+23юв2232100 0.0 10231457
20:00+19вюв2450100 0.0 102388
20 мая, чт
чт2023:00+14ю2260100 0.0 102312
02:00+12ю116879 0.0 102310
05:00+11ююз117262 0.0 102311
08:00+16ююз1256100 0.0 1024199
11:00+22ююв1239100 0.0 1022949
14:00+24ю2329100 0.0 10211565
17:00+25ю2227100 0.0 10201619
20:00+22ююз11456 0.0 101911
21 мая, пт
пт2123:00+15юз22620 0.0 102015
02:00+14зюз26743 0.0 1020105
05:00+12з11764 0.0 102110
08:00+18ююз235632 0.0 1021231
11:00+22ю3437100 0.0 10201188
14:00+25ююз352924 0.0 10192046
17:00+25ююз452999 0.0 10172544
20:00+22ююв384799 0.0 1017323